Home   Weather   Kiruna   Past weeks

Flag for Sweden Past Weather in Kiruna, Sweden — Yesterday and Last 2 Weeks

Now
45 °F

Fog.


Feels Like: 41 °F
Forecast: 42 / 47 °F
Wind: 6 mph from Southwest

Location: Kiruna Airport

Current Time: Sep 27, 2016 at 5:47:04 AM

Latest Report: Sep 27, 2016 at 5:20 AM


Visibility: 0 mi

Pressure: 30.12 "Hg (28.23 "Hg at 532m altitude)

Humidity: 100%

Dew Point: 45 °F

Location of KirunaLocation

Past Weather in Kiruna — Graph

°F

Kiruna Temperature Yesterday

Maximum temperature yesterday: 59 °F (at 11:50 AM)
Minimum temperature yesterday: 43 °F (at 3:20 AM)
Average temperature yesterday: 51 °F

High & Low Weather Summary for the Past Weeks

 TemperatureHumidityPressure
High66 °F (Sep 14, 1:20 PM)100% (Sep 13, 4:20 AM)30.27 "Hg (Sep 13, 4:20 AM)
Low32 °F (Sep 15, 10:50 PM)49% (Sep 14, 1:20 PM)29.56 "Hg (Sep 12, 4:20 AM)
Average47 °F85%30.08 "Hg
* Reported Sep 12 4:20 AM — Sep 27 4:50 AM, Kiruna, Weather by CustomWeather, © 2016

Note: Actual official high and low records may vary slightly from our data, if they occured in-between our weather recording intervals... More about our weather records

Advertising

Kiruna Weather History for the Previous 24 Hours

Scroll right to see more
 ConditionsComfort  
Time TempWeatherWind HumidityBarometerVisibility
4:50 AM
Tue, Sep 27
45 °FLow clouds.5 mph100%30.12 "Hg1 mi
4:20 AM45 °FLow clouds.6 mph100%30.12 "Hg2 mi
3:50 AM45 °FMostly cloudy.3 mph100%30.12 "Hg1 mi
3:20 AM46 °FFog.3 mph93%30.12 "Hg2 mi
2:50 AM46 °FLow clouds.5 mph100%30.12 "HgN/A
2:20 AM48 °FLow clouds.No wind94%30.12 "HgN/A
1:50 AM48 °FLow clouds.6 mph94%30.12 "HgN/A
1:20 AM48 °FLow clouds.5 mph94%30.12 "HgN/A
12:50 AM48 °FMostly cloudy.6 mph94%30.12 "HgN/A
12:20 AM48 °FLow clouds.7 mph100%30.12 "HgN/A
11:50 PM
Mon, Sep 26
48 °FLow clouds.9 mph100%30.12 "Hg4 mi
11:20 PM48 °FLow clouds.9 mph100%30.12 "HgN/A
10:50 PM50 °FPassing clouds.8 mph94%30.09 "HgN/A
10:20 PM50 °FPartly cloudy.9 mph94%30.09 "HgN/A
9:50 PM50 °FPartly cloudy.9 mph88%30.09 "HgN/A
9:20 PM50 °FPartly cloudy.9 mph88%30.09 "HgN/A
8:50 PM50 °FPartly cloudy.10 mph94%30.09 "HgN/A
8:20 PM52 °FPassing clouds.9 mph82%30.09 "HgN/A
7:50 PM52 °FPassing clouds.9 mph82%30.07 "HgN/A
7:20 PM54 °FPartly cloudy.8 mph77%30.07 "HgN/A
6:50 PM54 °FPassing clouds.9 mph77%30.07 "HgN/A
6:20 PM55 °FPartly sunny.9 mph72%30.07 "HgN/A
5:50 PM55 °FPartly sunny.7 mph72%30.07 "HgN/A
5:20 PM55 °FScattered clouds.6 mph72%30.07 "HgN/A
4:50 PM57 °FScattered clouds.9 mph67%30.07 "HgN/A
4:20 PM59 °FPassing clouds.7 mph63%30.07 "HgN/A
3:50 PM59 °FPassing clouds.10 mph63%30.07 "HgN/A
3:20 PM59 °FSunny.12 mph63%30.07 "Hg10 mi
2:50 PM59 °FSunny.13 mph68%30.07 "Hg10 mi
2:20 PM59 °FSunny.10 mph68%30.07 "Hg10 mi
1:50 PM59 °FSunny.14 mph68%30.07 "Hg10 mi
1:20 PM59 °FSunny.13 mph68%30.07 "Hg10 mi
12:50 PM59 °FSunny.13 mph68%30.07 "Hg10 mi
12:20 PM59 °FSunny.13 mph68%30.07 "Hg10 mi
11:50 AM59 °FSunny.10 mph72%30.07 "Hg10 mi
11:20 AM57 °FSunny.9 mph77%30.07 "Hg10 mi
10:50 AM55 °FSunny.9 mph77%30.07 "Hg10 mi
10:20 AM54 °FSunny.7 mph82%30.07 "Hg10 mi
9:50 AM54 °FSunny.3 mph82%30.07 "Hg10 mi
9:20 AM50 °FSunny.No wind88%30.07 "Hg10 mi
8:50 AM48 °FSunny.2 mph87%30.07 "Hg10 mi
8:20 AM46 °FSunny.5 mph100%30.07 "Hg10 mi
7:50 AM45 °FSunny.3 mph100%30.07 "Hg10 mi
7:20 AM46 °FSunny.5 mph93%30.07 "Hg10 mi
6:50 AM46 °FSunny.2 mph93%30.07 "Hg10 mi
6:20 AM46 °FClear.5 mph100%30.07 "Hg10 mi
5:50 AM43 °FClear.6 mph100%30.07 "Hg10 mi
5:20 AM45 °FPassing clouds.6 mph100%30.07 "HgN/A
Weather by CustomWeather, © 2016

See weather overviewHow to use our weather pages